[[{"header":{"parameterUnit":"m.s-1","parameterCategory":1,"la1":30.2991,"la2":30.254,"lo1":-89.0895,"lo2":-89.0444,"dy":0.0017,"dx":0.0017,"nx":28,"ny":28,"refTime":"2024-03-26T09:00:00:Z","depth":0,"parameterNumber":2,"parameterNumberName":"U-component_of_WINDS"},"data":[0,0,0,0,0,0,0,0,0,0,0,0,0,0,0,0,0,0,0,0,0,0,0,0,0,0,0,0,0,0,0,0,0,0,0,0,0,0,0,0,0,0,0,0,0,0,0,0,0,0,0,0,0,0,0,0,0,0,0.3943,0.3943,0,0.3958,0.3958,0.3958,0.3961,0.3961,0.3961,0.396,0.3975,0.3976,0.3976,0,0,0,0,0,0,0,0,0,0,0,0,0,0.3919,0.3919,0.3943,0.3943,0.3944,0.3958,0.3958,0.3958,0.3961,0.3961,0.3961,0.396,0.3975,0.3975,0.3976,0,0,0,0,0,0,0,0,0,0,0,0,0,0.3931,0.3919,0.3943,0.3947,0.3947,0.3958,0.3958,0.3958,0.3961,0.3961,0.3961,0.396,0.3975,0.3975,0.3976,0.3984,0,0,0.3978,0.3979,0,0,0,0,0,0,0,0,0.393,0.3932,0.3946,0.3946,0.3947,0.3957,0.3955,0.3967,0.3961,0.3956,0.396,0.396,0.3969,0.397,0.3974,0.3985,0.3985,0.3978,0.3979,0.3979,0.3979,0,0,0,0,0,0,0,0.3929,0.3931,0.3949,0.3946,0.3947,0.3948,0.3949,0.3957,0.3963,0.3956,0.3956,0.3958,0.397,0.3973,0.3974,0.3986,0.3978,0.3979,0.398,0.398,0.4005,0.4006,0,0,0,0,0,0,0.3928,0.393,0.3948,0.3949,0.3938,0.3948,0.395,0.3954,0.3963,0.3964,0.3958,0.3958,0.3972,0.3973,0.3974,0.3985,0.3979,0.398,0.398,0.4005,0.4005,0.4006,0,0,0,0,0,0,0.3927,0.3929,0.3948,0.394,0.3942,0.3949,0.3953,0.3954,0.3958,0.3965,0.3966,0.396,0.3972,0.3973,0.3982,0.3985,0.398,0.3981,0.4005,0.4005,0.4006,0.4006,0,0,0,0,0,0,0.3927,0.3929,0.3932,0.394,0.3943,0.3955,0.3954,0.3955,0.3959,0.3959,0.3967,0.3968,0.3972,0.3981,0.3983,0.3986,0.3982,0.4005,0.4005,0.4006,0.4005,0.4006,0.4006,0,0,0,0,0,0.3926,0.3931,0.3932,0.3934,0.3946,0.3955,0.3957,0.396,0.3959,0.3962,0.3967,0.3968,0.3985,0.3982,0.3984,0.3988,0.4004,0.4005,0.4005,0.4005,0.4006,0.4006,0,0,0,0,0,0,0.3923,0.3932,0.3933,0.3941,0.3948,0.3955,0.3959,0.3961,0.3967,0.3967,0.3972,0.3973,0.3982,0.3986,0.3982,0.3997,0.3995,0.3996,0.3994,0.3994,0.3995,0.3994,0.3982,0,0,0,0,0,0.3923,0.3929,0.3937,0.3944,0.3947,0.3953,0.3956,0.3959,0.3965,0.3968,0.3973,0.3979,0.3986,0.3991,0.3997,0.4006,0.4008,0.401,0.4011,0.4011,0.4012,0.4018,0.4019,0.4007,0.4007,0.4007,0,0,0.3924,0.393,0.3933,0.3943,0.3948,0.3955,0.3955,0.3961,0.3966,0.3969,0.3977,0.3982,0.3989,0.3998,0.4002,0.4002,0.4015,0.4012,0.4012,0.4012,0.4018,0.4019,0.402,0.4008,0.4008,0.4008,0,0,0.3928,0.3933,0.394,0.3945,0.3953,0.3957,0.3958,0.3967,0.397,0.3978,0.3981,0.3987,0.3998,0.4004,0.4008,0.4016,0.4018,0.4019,0.4021,0.4027,0.4028,0.4029,0.4032,0.4033,0.4019,0.4019,0.4019,0,0.3928,0.3938,0.3943,0.395,0.3954,0.3958,0.3964,0.3969,0.3979,0.3982,0.3981,0.3996,0.4001,0.4012,0.4014,0.4018,0.402,0.4017,0.4027,0.4028,0.4029,0.4032,0.4033,0.4019,0.4019,0.4019,0.4019,0,0.3938,0.3945,0.3949,0.3958,0.3964,0.397,0.3976,0.3981,0.3984,0.3988,0.3998,0.4004,0.4013,0.4015,0.4018,0.4027,0.4026,0.4026,0.4024,0.403,0.4033,0.4034,0.4019,0.4019,0.4019,0.4019,0,0,0.394,0.3953,0.3954,0.3959,0.3968,0.3974,0.3981,0.399,0.3994,0.4001,0.4008,0.4018,0.4019,0.4023,0.4027,0.4032,0.4039,0.4031,0.4032,0.4033,0.405,0.405,0.4051,0.404,0.404,0.404,0.4049,0,0.3945,0.3958,0.3964,0.3974,0.3981,0.3985,0.3992,0.3999,0.4003,0.401,0.4015,0.4023,0.4023,0.4026,0.4031,0.4037,0.4042,0.4036,0.4046,0.4046,0.4044,0.4052,0.4052,0.406,0.405,0.4051,0.4051,0,0.3954,0.3961,0.3973,0.3982,0.3985,0.3991,0.4,0.4006,0.4015,0.4018,0.4024,0.4027,0.4036,0.4034,0.4046,0.4042,0.4046,0.405,0.405,0.4051,0.4049,0.4053,0.4063,0.4064,0.4053,0.4053,0.4052,0,0.3954,0.3967,0.3976,0.398,0.3991,0.3996,0.4001,0.4009,0.4014,0.4022,0.4025,0.4034,0.4039,0.4046,0.4052,0.405,0.4063,0.4062,0.4066,0.4066,0.4069,0.4068,0.4078,0.4072,0.4072,0.4072,0.4072,0,0.396,0.3967,0.3977,0.3982,0.399,0.3996,0.4005,0.401,0.4017,0.4024,0.4028,0.4035,0.4042,0.405,0.4054,0.4064,0.4066,0.4069,0.407,0.4069,0.4068,0.4071,0.4071,0.4072,0.4072,0.4072,0.4072,0,0.3962,0.3968,0.3978,0.3989,0.3992,0.3997,0.4006,0.4012,0.4018,0.4026,0.4029,0.4037,0.4046,0.4053,0.4065,0.4068,0.4079,0.408,0.4076,0.4076,0.4081,0.408,0.4093,0.4095,0.4087,0.4087,0.4087,0,0.3965,0.397,0.3982,0.3987,0.3992,0.4,0.4005,0.4012,0.4018,0.4028,0.4033,0.4043,0.4051,0.4065,0.4073,0.4082,0.4083,0.4087,0.4085,0.4083,0.4084,0.4083,0.4084,0.4087,0.4087,0.4088,0.4088,0,0.397,0.3973,0.3981,0.399,0.3997,0.4005,0.4012,0.4016,0.4025,0.4031,0.4041,0.4047,0.4059,0.4069,0.4079,0.4085,0.4088,0.4089,0.409,0.4088,0.4086,0.4087,0.4077,0.4088,0.4088,0.4088,0.4088,0.4088,0.3972,0.3978,0.3987,0.3996,0.4002,0.401,0.4016,0.4023,0.4031,0.4042,0.4045,0.4055,0.4065,0.4079,0.4085,0.4093,0.4093,0.4095,0.4096,0.4096,0.4096,0.4085,0.4095,0.4095,0.4095,0.4095,0.4095,0,0.3978,0.3984,0.3992,0.4003,0.401,0.4013,0.4022,0.4028,0.4037,0.4045,0.4053,0.4065,0.4075,0.4083,0.4094,0.4099,0.41,0.4101,0.4101,0.4102,0.4096,0.4093,0.41,0.41,0.41,0.41,0.41,0.41,0.3981,0.3991,0.3995,0.4009,0.4015,0.4025,0.403,0.4037,0.4044,0.4057,0.4065,0.4071,0.408,0.4091,0.41,0.4103,0.4106,0.4107,0.4109,0.4103,0.4102,0.4102,0.41,0.4108,0.4108,0.4115,0.4115,0.4115]},{"header":{"parameterUnit":"m.s-1","parameterCategory":1,"la1":30.2991,"la2":30.254,"lo1":-89.0895,"lo2":-89.0444,"dy":0.0017,"dx":0.0017,"nx":28,"ny":28,"refTime":"2024-03-26T09:00:00:Z","depth":0,"parameterNumber":3,"parameterNumberName":"V-component_of_WINDS"},"data":[0,0,0,0,0,0,0,0,0,0,0,0,0,0,0,0,0,0,0,0,0,0,0,0,0,0,0,0,0,0,0,0,0,0,0,0,0,0,0,0,0,0,0,0,0,0,0,0,0,0,0,0,0,0,0,0,0,0,-6.1016,-6.1017,0,-6.1083,-6.1084,-6.1085,-6.1041,-6.1039,-6.1037,-6.1035,-6.1099,-6.1102,-6.1106,0,0,0,0,0,0,0,0,0,0,0,0,0,-6.0844,-6.0848,-6.1016,-6.1017,-6.1018,-6.1083,-6.1084,-6.1085,-6.1041,-6.1039,-6.1036,-6.1034,-6.1097,-6.1102,-6.1106,0,0,0,0,0,0,0,0,0,0,0,0,0,-6.0916,-6.0849,-6.1016,-6.1004,-6.1003,-6.1083,-6.1084,-6.1085,-6.1042,-6.1039,-6.1036,-6.1033,-6.1096,-6.1101,-6.1107,-6.12,0,0,-6.1123,-6.1125,0,0,0,0,0,0,0,0,-6.0912,-6.0922,-6.1005,-6.1005,-6.1004,-6.1051,-6.1047,-6.1124,-6.1042,-6.1027,-6.1035,-6.1031,-6.1085,-6.1091,-6.111,-6.1203,-6.1206,-6.1123,-6.1127,-6.1129,-6.113,0,0,0,0,0,0,0,-6.0907,-6.0919,-6.1042,-6.1006,-6.1006,-6.0993,-6.1,-6.1061,-6.1072,-6.1028,-6.1025,-6.1034,-6.1084,-6.1105,-6.1111,-6.1207,-6.1123,-6.1128,-6.1131,-6.1133,-6.1382,-6.1385,0,0,0,0,0,0,-6.0904,-6.0915,-6.104,-6.1044,-6.095,-6.0999,-6.1007,-6.1039,-6.1071,-6.1073,-6.1036,-6.1032,-6.1097,-6.1105,-6.1113,-6.1226,-6.1129,-6.1134,-6.1137,-6.1378,-6.1383,-6.1386,0,0,0,0,0,0,-6.09,-6.0915,-6.1037,-6.0979,-6.0994,-6.1005,-6.1042,-6.1042,-6.1063,-6.1078,-6.1079,-6.1056,-6.1095,-6.1106,-6.118,-6.1228,-6.1136,-6.1141,-6.1374,-6.138,-6.1384,-6.1453,0,0,0,0,0,0,-6.0895,-6.0914,-6.0951,-6.098,-6.0997,-6.1104,-6.1045,-6.1045,-6.1073,-6.1067,-6.1096,-6.1098,-6.1094,-6.1172,-6.1185,-6.1234,-6.1145,-6.137,-6.1377,-6.1383,-6.1446,-6.1459,-6.1471,0,0,0,0,0,-6.0889,-6.0966,-6.0953,-6.0968,-6.1043,-6.1107,-6.1117,-6.1111,-6.1077,-6.1113,-6.1123,-6.1097,-6.1221,-6.118,-6.1194,-6.1245,-6.1367,-6.1375,-6.1382,-6.1441,-6.1457,-6.1471,0,0,0,0,0,0,-6.0939,-6.0969,-6.0955,-6.1044,-6.1074,-6.11,-6.1145,-6.1128,-6.1167,-6.116,-6.115,-6.1157,-6.1235,-6.1247,-6.1201,-6.1338,-6.1288,-6.1299,-6.1328,-6.1343,-6.1355,-6.1351,-6.115,0,0,0,0,0,-6.0961,-6.1012,-6.1035,-6.1111,-6.1127,-6.1134,-6.1161,-6.1155,-6.1184,-6.1196,-6.1211,-6.1239,-6.1284,-6.1314,-6.1356,-6.1448,-6.1454,-6.149,-6.1502,-6.1512,-6.1522,-6.1572,-6.1589,-6.1411,-6.1411,-6.1411,0,0,-6.1005,-6.1028,-6.1061,-6.1121,-6.1144,-6.1196,-6.1144,-6.1201,-6.1239,-6.1204,-6.1276,-6.1288,-6.1319,-6.1402,-6.144,-6.1415,-6.1572,-6.1522,-6.153,-6.1534,-6.1581,-6.1598,-6.1613,-6.1416,-6.1415,-6.1415,0,0,-6.1114,-6.1136,-6.1203,-6.1227,-6.1262,-6.1267,-6.1283,-6.1312,-6.132,-6.1392,-6.1367,-6.1411,-6.1489,-6.1513,-6.1535,-6.1654,-6.1632,-6.1668,-6.1732,-6.1781,-6.1795,-6.1808,-6.1851,-6.1867,-6.1677,-6.1677,-6.1677,0,-6.1164,-6.1243,-6.1238,-6.1298,-6.1326,-6.1299,-6.1366,-6.1388,-6.1435,-6.1454,-6.1426,-6.1524,-6.1543,-6.1632,-6.1662,-6.168,-6.1698,-6.1664,-6.1794,-6.1806,-6.1818,-6.1859,-6.1875,-6.1681,-6.1681,-6.168,-6.168,0,-6.1304,-6.1359,-6.1409,-6.1457,-6.149,-6.1553,-6.1557,-6.159,-6.1581,-6.1589,-6.1663,-6.1685,-6.1732,-6.1752,-6.1743,-6.184,-6.1824,-6.1795,-6.1745,-6.1839,-6.1878,-6.1893,-6.1687,-6.1686,-6.1685,-6.1684,0,0,-6.1445,-6.1492,-6.151,-6.1533,-6.157,-6.1612,-6.1674,-6.1722,-6.1751,-6.1784,-6.1835,-6.1903,-6.1877,-6.1902,-6.1895,-6.1939,-6.2033,-6.1904,-6.1905,-6.1928,-6.2143,-6.2165,-6.2184,-6.2019,-6.2022,-6.2024,-6.2141,0,-6.1556,-6.1666,-6.1664,-6.1766,-6.1817,-6.1793,-6.1846,-6.1875,-6.1883,-6.1927,-6.1935,-6.1984,-6.1946,-6.1961,-6.2003,-6.2013,-6.2076,-6.2004,-6.2066,-6.2068,-6.206,-6.2204,-6.2227,-6.2336,-6.2156,-6.2158,-6.216,0,-6.17,-6.1742,-6.1849,-6.1881,-6.1903,-6.1951,-6.1996,-6.2038,-6.207,-6.2073,-6.2103,-6.2089,-6.2151,-6.2099,-6.2183,-6.2135,-6.2159,-6.2168,-6.2172,-6.2178,-6.212,-6.2214,-6.2371,-6.2388,-6.2184,-6.2182,-6.218,0,-6.1794,-6.1876,-6.1951,-6.1971,-6.201,-6.2045,-6.2062,-6.2091,-6.2121,-6.2159,-6.2178,-6.2222,-6.2247,-6.2281,-6.228,-6.2242,-6.2366,-6.2313,-6.237,-6.237,-6.2397,-6.2396,-6.2561,-6.2412,-6.2412,-6.2412,-6.2411,0,-6.1919,-6.1986,-6.1994,-6.204,-6.2115,-6.2111,-6.2184,-6.2198,-6.2224,-6.2272,-6.2253,-6.2298,-6.2293,-6.2338,-6.2337,-6.2408,-6.2418,-6.2422,-6.2422,-6.2425,-6.2425,-6.2441,-6.2434,-6.2416,-6.2415,-6.2414,-6.2413,0,-6.2035,-6.2044,-6.2125,-6.2156,-6.2166,-6.2219,-6.2245,-6.2289,-6.2296,-6.2357,-6.2371,-6.2382,-6.2434,-6.2437,-6.2496,-6.2495,-6.2582,-6.2572,-6.2572,-6.2571,-6.2627,-6.2623,-6.281,-6.2835,-6.2669,-6.2671,-6.2672,0,-6.2115,-6.2167,-6.2204,-6.2237,-6.2257,-6.2308,-6.2339,-6.2338,-6.237,-6.2412,-6.245,-6.2501,-6.2542,-6.2626,-6.2638,-6.2684,-6.2675,-6.2738,-6.2682,-6.2684,-6.2677,-6.2675,-6.268,-6.2749,-6.2751,-6.2752,-6.2753,0,-6.2256,-6.2258,-6.2305,-6.2354,-6.2392,-6.243,-6.2465,-6.2491,-6.2494,-6.2532,-6.2586,-6.2618,-6.268,-6.2731,-6.2776,-6.2791,-6.2773,-6.2771,-6.2787,-6.2791,-6.279,-6.2792,-6.2603,-6.2767,-6.2766,-6.2765,-6.2764,-6.2763,-6.2357,-6.2403,-6.2437,-6.249,-6.2517,-6.2551,-6.2594,-6.2608,-6.2654,-6.2707,-6.2702,-6.2763,-6.2793,-6.2852,-6.2872,-6.2919,-6.2897,-6.2919,-6.2925,-6.2931,-6.2938,-6.2782,-6.2926,-6.2926,-6.2926,-6.2925,-6.2925,0,-6.2498,-6.252,-6.2569,-6.262,-6.2662,-6.2643,-6.2681,-6.2717,-6.2771,-6.2803,-6.2844,-6.2907,-6.2957,-6.2974,-6.3022,-6.3056,-6.3049,-6.3068,-6.3066,-6.307,-6.2954,-6.2936,-6.3074,-6.3073,-6.3073,-6.3073,-6.3073,-6.3073,-6.2576,-6.2653,-6.2659,-6.2749,-6.2769,-6.2831,-6.2854,-6.2885,-6.291,-6.2982,-6.3025,-6.3036,-6.3062,-6.3112,-6.3156,-6.316,-6.3178,-6.3202,-6.3202,-6.3093,-6.3078,-6.3064,-6.3047,-6.3206,-6.3206,-6.3315,-6.3316,-6.3317]}]]